Simultaneous Nadir Overpasses (SNOs) Predictions

Prediction of SNOs between GOES-16 and METOP-B Satellite Orbit:

Table of predicted SNOs for the next 14.0 days since TLE Epoch: 3/21/2025
Index Date Time (GOES-16) GOES-16 Lat,Lon METOP-B Lat,Lon Distance(km) Time Diff (sec)
1 03/22/2025 14:20:42 0.06, -75.47 0.43, -77.12 187.72 80
2 03/23/2025 13:57:25 0.05, -75.49 -0.67, -72.14 381.48 80
3 03/25/2025 02:19:08 -0.05, -75.49 -0.36, -76.77 146.59 80
4 03/26/2025 01:55:50 -0.05, -75.51 0.75, -71.79 422.90 80
5 03/27/2025 14:14:46 0.06, -75.59 0.24, -76.39 91.90 80
6 03/28/2025 13:54:08 0.05, -75.62 -0.88, -71.42 478.27 80
7 03/30/2025 02:15:52 -0.06, -75.62 -0.13, -76.05 48.39 80
8 04/01/2025 14:11:28 0.05, -75.73 0.02, -75.67 7.82 80
9 04/04/2025 02:09:53 -0.05, -75.77 0.07, -75.32 52.16 80
